Weather History for Hermosillo, Mexico

Change the Weather History Date:

Thursday, July 25, 2013

  Actual Average Record
Temperature  
Mean Temperature 94 °F -  
Max Temperature 104 °F 99 °F 111 °F (1998)
Min Temperature 84 °F 77 °F 75 °F (2004)
Cooling Degree Days 29    
Growing Degree Days 44 (Base 50)    
Moisture  
Dew Point 62 °F    
Average Humidity 37    
Maximum Humidity 58    
Minimum Humidity 23    
Precipitation  
Precipitation 0.00 in - - ()
Sea Level Pressure  
Sea Level Pressure 29.89 in    
Wind  
Wind Speed 3 mph ()    
Max Wind Speed 15 mph    
Max Gust Speed -    
Visibility 10.0 miles    
Events      
Averages and records for this station are not official NWS values.
T = Trace of Precipitation, MM = Missing Value Source: Averaged Metar Reports

Daily Weather History Graph

Daily Weather History Graph

Search for Another Location

Airport:

Trip Planner

Search our weather history database for the weather conditions in past years. The results will help you decide how hot, cold, wet, or windy it might be!

Date:

Astronomy

Jul. 25, 2013 Rise Set
Actual Time 6:41 AM MDT 8:20 PM MDT
Civil Twilight 6:14 AM MDT 8:46 PM MDT
Nautical Twilight 5:43 AM MDT 9:17 PM MDT
Astronomical Twilight 5:10 AM MDT 9:49 PM MDT
Moon 10:26 PM MDT (7/25) 9:53 AM MDT (7/25)
Length of Visible Light 14h 31m
Length of Day
13h 39m
Waning Gibbous, 88% of the Moon is Illuminated
Jul 25
Waning Gibbous
Jul 29
Last Quarter
Aug 6
New
Aug 14
First Quarter
Aug 20
Full

Hourly Weather History & Observations

Time (MDT) Temp. Heat Index Dew Point Humidity Pressure Visibility Wind Dir Wind Speed Gust Speed Precip Events Conditions
12:40 AM 86.0 °F 86.6 °F 62.6 °F 45% 29.87 in 10.0 mi Calm Calm - N/A   Overcast
1:41 AM 86.0 °F 86.6 °F 62.6 °F 45% 29.87 in 10.0 mi Calm Calm - N/A   Overcast
2:41 AM 86.0 °F 87.3 °F 64.4 °F 48% 29.83 in 10.0 mi Calm Calm - N/A   Overcast
3:40 AM 84.2 °F 85.0 °F 62.6 °F 48% 29.87 in 10.0 mi Calm Calm - N/A   Overcast
4:41 AM 84.2 °F 87.3 °F 68.0 °F 58% 29.87 in 10.0 mi Calm Calm - N/A   Overcast
5:44 AM 86.0 °F 87.3 °F 64.4 °F 48% 29.84 in 10.0 mi Calm Calm - N/A   Overcast
6:43 AM 84.2 °F 85.6 °F 64.4 °F 51% 29.91 in 10.0 mi Calm Calm - N/A   Mostly Cloudy
7:41 AM 86.0 °F 87.3 °F 64.4 °F 48% 29.92 in 10.0 mi Calm Calm - N/A   Scattered Clouds
8:53 AM 89.6 °F 89.5 °F 60.8 °F 38% 29.87 in 10.0 mi ENE 5.8 mph - N/A   Scattered Clouds
9:54 AM 91.4 °F 90.7 °F 59.0 °F 34% 29.95 in 10.0 mi ENE 5.8 mph - N/A   Scattered Clouds
10:44 AM 93.2 °F 92.6 °F 59.0 °F 32% 29.96 in 10.0 mi East 6.9 mph - N/A   Scattered Clouds
11:44 AM 96.8 °F 97.1 °F 60.8 °F 30% 29.88 in 10.0 mi ENE 4.6 mph - N/A   Scattered Clouds
12:48 PM 98.6 °F 98.5 °F 59.0 °F 27% 29.94 in 10.0 mi SSE 5.8 mph - N/A   Scattered Clouds
1:58 PM 100.4 °F 100.2 °F 59.0 °F 25% 29.92 in 10.0 mi SSW 5.8 mph - N/A   Scattered Clouds
2:43 PM 102.2 °F 103.6 °F 60.8 °F 26% 29.83 in 10.0 mi SW 4.6 mph - N/A   Scattered Clouds
3:41 PM 102.2 °F 103.6 °F 60.8 °F 26% 29.89 in 10.0 mi SSE 5.8 mph - N/A   Mostly Cloudy
4:43 PM 104.0 °F 104.6 °F 59.0 °F 23% 29.87 in 10.0 mi South 8.1 mph - N/A   Mostly Cloudy
5:49 PM 102.2 °F 102.4 °F 59.0 °F 24% 29.80 in 10.0 mi WNW 4.6 mph - N/A   Mostly Cloudy
6:40 PM 102.2 °F 104.2 °F 62.6 °F 27% 29.85 in 10.0 mi WSW 11.5 mph - N/A   Scattered Clouds
7:42 PM 98.6 °F 100.0 °F 62.6 °F 30% 29.88 in 10.0 mi SW 15.0 mph - N/A   Scattered Clouds
8:42 PM 95.0 °F 95.2 °F 60.8 °F 32% 29.84 in 10.0 mi WSW 9.2 mph - N/A   Mostly Cloudy
9:44 PM 93.2 °F 94.1 °F 62.6 °F 36% 29.93 in 10.0 mi WSW 6.9 mph - N/A   Mostly Cloudy
10:41 PM 91.4 °F 92.1 °F 62.6 °F 38% 29.95 in 10.0 mi WSW 5.8 mph - N/A   Mostly Cloudy
11:41 PM 91.4 °F 93.2 °F 64.4 °F 41% 29.92 in 10.0 mi Calm Calm - N/A   Mostly Cloudy